Regional Weather Roundup
Issued by NWS

Home | Current Version | Previous Version | Text Only | Print | Product List | Glossary On
Versions: 1 2 3 4 5 6 7 8 9 10 11 12 13 14 15 16 17 18 19 20 21 22 23 24 25 26 27 28 29 30 31 32 33 34 35 36 37 38 39 40 41 42 43 44 45 46 47 48 49 50
000
ASUS43 KMKX 041900
RWRWI

WISCONSIN REGIONAL WEATHER ROUNDUP
NATIONAL WEATHER SERVICE MILWAUKEE/SULLIVAN WI
200 PM CDT TUE AUG 04 2015

NOTE: "FAIR" INDICATES FEW OR NO CLOUDS BELOW 12,000 FEET WITH NO
SIGNIFICANT WEATHER AND/OR OBSTRUCTIONS TO VISIBILITY.

WIZ001-002-006>008-014>016-023>028-042000-
NORTHWEST WISCONSIN

CITY           SKY/WX    TMP DP  RH WIND       PRES   REMARKS
SUPERIOR ARPT  MOSUNNY   75  56  52 NE6       29.96S
ASHLAND        PTSUNNY   72  55  55 N6        29.98S
HAYWARD        MOSUNNY   75  51  43 W9        29.98S
SIREN          PTSUNNY   74  52  44 N7        29.98S
CUMBERLAND     PTSUNNY   72  52  49 NW9       30.00R
RICE LAKE      MOSUNNY   76  51  41 W9        30.01R
CHETEK         PTSUNNY   74  54  48 W7        29.99S
LADYSMITH      PTSUNNY   74  51  44 NW9       30.00S
EAU CLAIRE     NOT AVBL
MENOMONIE      SUNNY     78  49  36 W13       30.00S
NEW RICHMOND   MOSUNNY   77  51  40 W6G16     30.00S
OSCEOLA        SUNNY     76  53  44 W9G17     30.02R
$$

WIZ003>005-009-010-017-018-042000-
NORTH CENTRAL WISCONSIN

CITY           SKY/WX    TMP DP  RH WIND       PRES   REMARKS
MANITOWISH WTR PTSUNNY   66  51  56 NW12G17   29.98S
ARBOR VITAE    PTSUNNY   67  53  61 NW7       29.99R
WOODRUFF       PTSUNNY   67  53  61 NW7       29.99R
RHINELANDER    PTSUNNY   71  49  45 W10       29.98R
EAGLE RIVER    MOSUNNY   66  47  50 W13G21    29.98S
LAND O LAKES   CLOUDY    67  49  53 N14       29.99S
PHILLIPS       CLOUDY    68  53  58 NW7       29.98R
TOMAHAWK       MOSUNNY   71  51  49 W10G24    29.98S
MEDFORD        CLOUDY    70  53  53 NW10G16   29.99S
MERRILL        NOT AVBL
$$

WIZ029-030-035-036-043>047-042000-
CENTRAL WISCONSIN

CITY           SKY/WX    TMP DP  RH WIND       PRES   REMARKS
WAUSAU         MOSUNNY   74  50  42 NW12      29.96S
MOSINEE        PTSUNNY   73  52  46 W12G17    29.99S
MARSHFIELD     CLOUDY    73  50  44 W12       29.99S
STEVENS POINT  PTSUNNY   72  50  45 NW8       29.98R
WAUPACA        MOSUNNY   77  49  36 W7        29.96S
WAUTOMA        NOT AVBL
WISC RAPIDS    CLOUDY    77  50  38 N13       30.00R
CAMP DOUGLAS   NOT AVBL
$$

WIZ011>013-019>022-031-037>040-048>050-042000-
NORTHEAST WISCONSIN

CITY           SKY/WX    TMP DP  RH WIND       PRES   REMARKS
ANTIGO         PTSUNNY   71  50  47 NW10G20   29.97R
SHAWANO        PTSUNNY   77  51  39 W12G17    29.94S
OCONTO         PTSUNNY   75  54  46 N13       29.92S
STURGEON BAY   SUNNY     72  54  53 NW9       29.96R
GREEN BAY      SUNNY     76  54  46 NW15      29.94S
MANITOWOC      NOT AVBL
APPLETON       PTSUNNY   75  46  35 W13G20    29.96S
CLINTONVILLE   PTSUNNY   73  46  38 NW12G17   29.94S
OSHKOSH        MOSUNNY   76  51  41 NW16      29.96S
$$

WIZ032>034-041-042-053>061-042000-
SOUTHWEST WISCONSIN

CITY           SKY/WX    TMP DP  RH WIND       PRES   REMARKS
LA CROSSE      MOSUNNY   79  52  38 W9        29.99F
SPARTA         MOSUNNY   78  46  32 W12G17    30.01S
VIROQUA        MOSUNNY   75  52  45 W7        30.03S
BOSCOBEL       PTSUNNY   82  51  34 NW9       30.00F HX  81
PRAIRIE DU CHI PTSUNNY   78  47  34 W8        30.00F
PLATTEVILLE    MOSUNNY   77  55  47 W9        30.01F
$$

WIZ056-057-062-063-064-067-068-042000-
SOUTH CENTRAL WISCONSIN

CITY           SKY/WX    TMP DP  RH WIND       PRES   REMARKS
REEDSBURG      PTSUNNY   76  51  40 W9G16     29.99S
BARABOO/DELLS  PTSUNNY   77  46  32 NW8       30.00S
LONE ROCK      NOT AVBL
MINERAL POINT  PTSUNNY   75  50  41 W12       30.02S
MADISON        PTSUNNY   77  52  41 NW8       29.99S
MIDDLETON      PTSUNNY   78  47  33 NW12      30.00S
WATERTOWN      MOSUNNY   77  52  41 W15G22    29.98S
MONROE         PTSUNNY   75  50  41 NW12G20   30.00S
JANESVILLE     NOT AVBL
$$

WIZ051-052-058>065-066-070>072-042000-
SOUTHEAST WISCONSIN

CITY           SKY/WX    TMP DP  RH WIND       PRES   REMARKS
MILWAUKEE      PTSUNNY   79  47  32 W15       29.96S
WAUKESHA       MOSUNNY   77  46  33 W12G23    29.99R
MILWAUKEE/TIMM MOSUNNY   79  45  29 NW12G21   29.97R
RACINE         PTSUNNY   78  53  41 NW13      29.98R
BURLINGTON     MOSUNNY   77  50  37 W9G18     29.98R
KENOSHA        PTSUNNY   75  56  51 W10       29.97S
FOND DU LAC    MOSUNNY   78  51  38 NW14G22   29.97S
SHEBOYGAN      PTSUNNY   74  52  46 NW10G20   29.96R
WEST BEND      PTSUNNY   73  46  38 NW13G20   29.98R
JUNEAU         MOSUNNY   73  53  49 W6        29.99S
$$

LSZ147-162-042000-
LAKE SUPERIOR

STATION/POSITION TIME  TEMP    WIND        PRES    WAVE
                       AIR SEA DIR/SP/G            HT/PER
                 (UTC) (F)     (DEG/KT/KT) (MB)    (FT/S)
W MID LAKE BUOY  1750   57 58  250/  6/  8 1015.2R   1
DEVILS ISLAND    1800   60     260/  3/  5 1015.6F
PORT WING        1800   67     300/  6/  8 1015.2
SAXON HARBOR     1800   67        CALM     1014.9F
$$

LMZ867-665-643>646-042000-
LAKE MICHIGAN

STATION/POSITION TIME  TEMP    WIND        PRES    WAVE
                       AIR SEA DIR/SP/G            HT/PER
                 (UTC) (F)     (DEG/KT/KT) (MB)    (FT/S)
CHAMBERS ISLAND  1800   65     320/  7/ 11 1013.5R
N MID LAKE BUOY  1750   63 70  280/  2/  4 1013.3R   1
NORTHPORT PIER   1800   66     310/  8/ 12 1013.5S
SISTER BAY       1818   60     340/ 15/ 16   N/A
ALGOMA LAKESHORE 1812          260/  6/ 11   N/A
KEWAUNEE LAKESHO 1800   71     290/  6/ 11 1013.1S
SHEBOYGAN LAKESH 1800   72     290/ 12/ 16 1014.3S
PORT WASHINGTON  1800   78     280/  8/ 15 1014.6S
ATWATER BUOY     1800   67 52  300/ 12/ 16 1015.6R
MILWAUKEE LAKESH 1800   75     280/ 15/ 22   N/A
KENOSHA   LAKESH 1800   77     310/ 13/ 18 1013.9S
$$

TC  - TEMPERATURE IN CELSIUS
VSB - VISIBILITY IN STATUTE MILES
WCI - WIND CHILL INDEX
HX  - HEAT INDEX



USA.gov is the U.S. government's official web portal to all federal, state and local government web resources and services.